Regional Weather Roundup
Issued by NWS Columbia, SC

Home | Current Version | Previous Version | Text Only | Print | Product List | Glossary On
Versions: 1 2 3 4 5 6 7 8 9 10 11 12 13 14 15 16 17 18 19 20 21 22 23 24 25 26 27
000
ASUS42 KCAE 200410
RWRCAE
REGIONAL WEATHER ROUNDUP
NATIONAL WEATHER SERVICE COLUMBIA SC
1200 AM EDT SUN AUG 20 2017

NOTE: "FAIR" INDICATES FEW OR NO CLOUDS BELOW 12,000 FEET WITH NO
SIGNIFICANT WEATHER AND/OR OBSTRUCTIONS TO VISIBILITY.

NOT ALL STATIONS ARE QUALITY CONTROLLED BY THE NATIONAL
WEATHER SERVICE. USE DATA WITH CAUTION...ESPECIALLY
DEWPOINT OBSERVATIONS.

SCZ001>056-GAZ040-063>065-077-200500-
...UPSTATE SOUTH CAROLINA...

CITY           SKY/WX    TMP DP  RH WIND       PRES   REMARKS
ANDERSON       CLEAR     74  69  85 CALM      30.03R
LIBERTY        CLEAR     70  69  96 CALM      30.03S
SPARTANBURG    CLEAR     72  66  83 CALM      30.02S
CLEMSON        CLEAR     77  73  87 NW3       30.04S
GREENVILLE     CLEAR     80  68  66 CALM      30.05R
GREENWOOD      CLEAR     73  68  84 CALM      30.03R
GREER          CLEAR     75  70  84 CALM      30.03R
ROCK HILL      CLEAR     72  71  97 CALM      30.02S
CHESTER        CLEAR     72  66  83 N3        30.02S
LAURENS        CLEAR     72  66  83 CALM      30.02R


...CENTRAL SOUTH CAROLINA...

CITY           SKY/WX    TMP DP  RH WIND       PRES   REMARKS
COLUMBIA APT   CLEAR     82  68  62 W5        29.97R
COLUMBIA OWENS CLEAR     81  70  69 CALM      29.98S
MCENTIRE ANGB  CLEAR     74  71  88 CALM      29.98R
ORANGEBURG     PTCLDY    76  72  87 CALM      29.99R
SUMTER SHAW    PTCLDY    78  69  74 CALM      29.96R
NEWBERRY         N/A     75  68  78 CALM      30.03S
AIKEN          FAIR      77  68  73 W3        30.04R
BARNWELL       FAIR      77  73  88 CALM      29.99R
MANNING        FAIR      79  79 100 MISG      29.99R
CAMDEN         FAIR      79  72  78 CALM      30.00R
LANCASTER      CLEAR     73  73 100 CALM      30.01R
WINNSBORO      CLEAR     79  68  69 N5        30.00S


...EASTERN AND COASTAL SOUTH CAROLINA...

CITY           SKY/WX    TMP DP  RH WIND       PRES   REMARKS
N MYRTLE BCH   MOCLDY    82  80  94 SW13      29.99R
CONWAY         FAIR      77  75  94 CALM      29.99R FOG
MARION         MOCLDY    77  73  88 CALM      29.99R
HARTSVILLE     FAIR      77  73  88 CALM      29.99R
FLORENCE       CLEAR     79  77  94 CALM      29.99R
DARLINGTON     CLEAR     77  76  96 NE3       29.99R FOG
CHARLESTON APT CLEAR     80  79  96 SW6       29.99R
MOUNT PLEASANT FAIR      81  81 100 CALM      29.99R
WALTERBORO     PTCLDY    79  77  94 CALM      30.00R
BEAUFORT       CLEAR     83  81  94 S3        29.99R HX  97


...EASTERN GEORGIA...

CITY           SKY/WX    TMP DP  RH WIND       PRES   REMARKS
AUGUSTA BUSH F CLEAR     76  73  91 CALM      29.98R
AUGUSTA DANIEL CLEAR     84  64  50 NW7       30.00S
THOMSON        CLEAR     73  71  95 CALM      30.06R
WASHINGTON     FAIR     N/A N/A N/A NW3       30.02R
CLAXTON        FAIR      77  75  94 CALM      29.99S
SYLVANIA       PTCLDY    75  74  98 CALM      30.00S
STATESBORO     PTCLDY    77  71  83 CALM      30.00R
SAVANNAH       PTCLDY    82  78  88 CALM      29.99R


...SOUTHERN NORTH CAROLINA...

CITY           SKY/WX    TMP DP  RH WIND       PRES   REMARKS
CHARLOTTE      PTCLDY    74  72  93 CALM      30.02R
MONROE         CLEAR     73  68  84 CALM      30.01R
WADESBORO      CLEAR     73  69  86 CALM      30.00R
ROCKINGHAM     CLEAR     77  74  92 CALM      30.00R
RUTHERFORDTON  CLEAR     71  71 100 CALM      30.06R
ASHEVILLE      CLEAR     69  66  90 CALM      30.13R

$$




USA.gov is the U.S. government's official web portal to all federal, state and local government web resources and services.